YAMAL 202

Last updated on Jan. 19, 2020, 4:37 a.m. UTC

1 28089U 03053A   20018.84098115 -.00000084  00000-0  00000+0 0  9997
2 28089   0.4958  96.6888 0003927 197.8393 289.4098  1.00270541 59207
UTC
Height (km)
Latitude
Longitude
Inclination
Orbital Period
UTC large
Height (km)
Speed (km/s)
/
Latitude / Longitude
Inclination (degrees)
Orbital Period (minutes)
Azimuth
Elevation
Range (km)
Doppler Factor
iOS Compass Heading
iOS Angle

Next 30 passes for location: Hong Kong

Rise time Rise Azimuth (degrees) Set time Set Azimuth (degrees) Duration Max altitude (degrees)

No matching passes for this satellites